Tracking 25195 objects as of 20-Jan-2022
HD Live streaming from Space Station
objects crossing your sky now

GALAXY 3R

Track GALAXY 3R now!
GALAXY 3R is classified as:


NORAD ID: 23741
Int'l Code: 1995-069A
Perigee: 35,780.1 km
Apogee: 35,818.5 km
Inclination: 11.8 °
Period: 1,436.4 minutes
Semi major axis: 42170 km
RCS: 12.3125 m2 (large)
Launch date: December 15, 1995
Source: United States (US)
Launch site: AIR FORCE EASTERN TEST RANGE (AFETR)

24 C-band, 16 Ku-band; North America, Caribbean; 140 television channels.
aabbcc
Your satellite tracking list
Your tracking list is empty




NASA's NSSDC Master Catalog

Two Line Element Set (TLE):
1 23741U 95069A   22019.48608406 -.00000251  00000-0  00000-0 0  9995
2 23741  11.7642  27.2106 0004546  25.5506 164.8812  1.00252038 95678
Source of the keplerian elements: AFSPC